sat.trackr.live / text

‹ back to catalog

EROS C3

NORAD 54880 · 2022-179A

PAYLOAD ACTIVE UNKNOWN

§ Identity

Operator
Country
ISRA
Launch date
2022-12-30
Launch site
AFWTR
Launch vehicle
Mass (kg)
RCS (m²)

External: N2YO · Heavens-Above · Gunter

§ Orbital elements

Epoch: 2026-05-24T14:55:06.851712Z

Period
95.31 min
Inclination
139.3351°
Eccentricity
0.0007284
Mean motion
15.10788911 rev/d
Perigee alt
528.8 km
Apogee alt
538.8 km
Semi-major
6,911.9 km
B*
2.6835e-4
RAAN
230.3433°
Arg perigee
168.1806°
Mean anomaly
191.9173°
Rev number
18,876

§ Raw data

EROS C31 54880U 22179A   26144.62160708  .00004791  00000+0  26835-3 0  99902 54880 139.3351 230.3433 0007284 168.1806 191.9173 15.10788911188763

JSON: /api/v1/satellites/54880 · /tle

For live sub-satellite position, see the globe view (requires WebGL).

§ Visibility from observer

Set your observer location to see the next 7 days of passes ≥ 10°. The values pass through the URL so the page stays shareable.

No JS? Fill the form by hand. The geolocation button needs JavaScript.